Simultaneous Nadir Overpasses (SNOs) Predictions

Prediction of SNOs between AQUA and NOAA-19 Satellite Orbit:

Table of predicted SNOs for the next 14.0 days since TLE Epoch: 5/20/2023
Index Date (AQUA) Time (AQUA) Lat,Lon (AQUA) SZA (AQUA ) Date (NOAA-19) Time (NOAA-19) Lat,Lon (NOAA-19) SZA (NOAA-19 ) Distance(km) Time Diff (sec)
1 05/22/2023 00:47:26 -76.50, -21.84 123.68 05/22/2023 00:46:35 -76.51, -21.89 123.67 1.44 51
2 05/22/2023 01:36:53 76.58, 145.54 56.40 05/22/2023 01:37:29 76.58, 145.66 56.39 3.17 36
3 05/24/2023 06:19:07 76.55, 75.11 55.94 05/24/2023 06:19:02 76.53, 75.15 55.92 2.24 5
4 05/26/2023 11:01:20 76.49, 4.76 55.49 05/26/2023 11:00:34 76.52, 4.78 55.52 2.56 46
5 05/26/2023 11:50:45 -76.54, 172.24 124.47 05/26/2023 11:51:36 -76.54, 172.13 124.47 2.70 51
6 05/28/2023 15:43:23 75.99, -64.12 54.56 05/28/2023 15:42:19 75.93, -67.77 54.68 98.61 64
7 05/28/2023 16:32:58 -76.52, 101.79 124.86 05/28/2023 16:33:07 -76.55, 101.83 124.83 3.14 9
8 05/30/2023 21:15:10 -76.48, 31.41 125.24 05/30/2023 21:14:39 -76.50, 31.33 125.21 3.23 31
9 05/30/2023 22:04:37 76.56,-161.24 54.86 05/30/2023 22:05:35 76.56,-161.15 54.85 2.46 58
10 06/02/2023 01:57:22 -76.46, -39.07 125.56 06/02/2023 01:56:10 -76.49, -39.04 125.52 2.81 72
11 06/02/2023 02:46:48 76.50, 128.44 54.49 06/02/2023 02:47:07 76.53, 128.41 54.52 3.32 19



Historial Predications of SNOs between AQUA and NOAA-19
